Time,TemperatureF,DewpointF,PressureIn,WindDirection,WindDirectionDegrees,WindSpeedMPH,WindSpeedGustMPH,Humidity,HourlyPrecipIn,Conditions,Clouds,dailyrainin,SoftwareType,DateUTC
2014-02-06 00:01:00,23.7,20.1,29.62,South,173,0.0,0.0,86,0.00,,,0.00,VWS V14.01,2014-02-06 05:01:00,
2014-02-06 00:06:00,23.7,20.1,29.62,South,173,0.0,0.0,86,0.00,,,0.00,VWS V14.01,2014-02-06 05:06:00,
2014-02-06 00:11:00,23.5,20.0,29.62,South,173,0.0,0.0,86,0.00,,,0.00,VWS V14.01,2014-02-06 05:11:00,
2014-02-06 00:16:00,23.5,20.0,29.62,South,173,0.0,0.0,86,0.00,,,0.00,VWS V14.01,2014-02-06 05:16:00,
2014-02-06 00:21:00,23.5,20.0,29.62,South,173,0.0,0.0,86,0.00,,,0.00,VWS V14.01,2014-02-06 05:21:00,
2014-02-06 00:26:00,23.5,19.7,29.62,South,173,0.0,0.0,85,0.00,,,0.00,VWS V14.01,2014-02-06 05:26:00,
2014-02-06 00:31:00,23.5,19.7,29.62,South,173,0.0,0.0,85,0.00,,,0.00,VWS V14.01,2014-02-06 05:31:00,
2014-02-06 00:36:00,23.5,19.7,29.62,South,173,0.0,0.0,85,0.00,,,0.00,VWS V14.01,2014-02-06 05:36:00,
2014-02-06 00:41:00,23.5,19.7,29.62,South,173,0.0,0.0,85,0.00,,,0.00,VWS V14.01,2014-02-06 05:41:00,
2014-02-06 00:46:00,23.5,19.7,29.62,South,173,0.0,0.0,85,0.00,,,0.00,VWS V14.01,2014-02-06 05:46:00,
2014-02-06 00:51:00,23.5,19.7,29.62,South,173,0.0,0.0,85,0.00,,,0.00,VWS V14.01,2014-02-06 05:51:00,
2014-02-06 00:56:00,23.5,19.7,29.62,South,173,0.0,0.0,85,0.00,,,0.00,VWS V14.01,2014-02-06 05:56:00,
2014-02-06 01:01:00,23.4,19.5,29.65,South,173,0.0,0.0,85,0.00,,,0.00,VWS V14.01,2014-02-06 06:01:00,
2014-02-06 01:06:00,23.4,19.5,29.65,South,173,0.0,0.0,85,0.00,,,0.00,VWS V14.01,2014-02-06 06:06:00,
2014-02-06 01:11:00,23.4,19.5,29.65,South,173,0.0,0.0,85,0.00,,,0.00,VWS V14.01,2014-02-06 06:11:00,
2014-02-06 01:16:00,23.4,19.5,29.65,South,173,0.0,0.0,85,0.00,,,0.00,VWS V14.01,2014-02-06 06:16:00,
2014-02-06 01:21:00,23.4,19.5,29.65,South,173,0.0,0.0,85,0.00,,,0.00,VWS V14.01,2014-02-06 06:21:00,
2014-02-06 01:26:00,23.4,19.5,29.65,South,173,0.0,0.0,85,0.00,,,0.00,VWS V14.01,2014-02-06 06:26:00,
2014-02-06 01:31:00,23.2,19.4,29.65,South,173,0.0,0.0,85,0.00,,,0.00,VWS V14.01,2014-02-06 06:31:00,
2014-02-06 01:36:00,23.2,19.1,29.65,South,173,0.0,0.0,84,0.00,,,0.00,VWS V14.01,2014-02-06 06:36:00,
2014-02-06 01:41:00,23.0,19.2,29.65,South,173,0.0,0.0,85,0.00,,,0.00,VWS V14.01,2014-02-06 06:41:00,
2014-02-06 01:46:00,22.8,19.0,29.65,South,173,0.0,0.0,85,0.00,,,0.00,VWS V14.01,2014-02-06 06:46:00,
2014-02-06 01:51:00,22.6,18.8,29.65,South,173,0.0,0.0,85,0.00,,,0.00,VWS V14.01,2014-02-06 06:51:00,
2014-02-06 01:56:00,22.5,18.4,29.65,South,173,0.0,0.0,84,0.00,,,0.00,VWS V14.01,2014-02-06 06:56:00,
2014-02-06 02:01:00,22.3,18.2,29.65,South,173,0.0,0.0,84,0.00,,,0.00,VWS V14.01,2014-02-06 07:01:00,
2014-02-06 02:06:00,21.9,17.8,29.65,South,173,0.0,0.0,84,0.00,,,0.00,VWS V14.01,2014-02-06 07:06:00,
2014-02-06 02:11:00,21.9,17.8,29.65,South,173,0.0,0.0,84,0.00,,,0.00,VWS V14.01,2014-02-06 07:11:00,
2014-02-06 02:16:00,21.6,17.5,29.68,South,173,0.0,0.0,84,0.00,,,0.00,VWS V14.01,2014-02-06 07:16:00,
2014-02-06 02:21:00,21.4,17.3,29.68,South,173,0.0,0.0,84,0.00,,,0.00,VWS V14.01,2014-02-06 07:21:00,
2014-02-06 02:26:00,21.2,17.1,29.68,South,173,0.0,0.0,84,0.00,,,0.00,VWS V14.01,2014-02-06 07:26:00,
2014-02-06 02:31:00,21.0,17.0,29.68,South,173,0.0,0.0,84,0.00,,,0.00,VWS V14.01,2014-02-06 07:31:00,
2014-02-06 02:36:00,20.8,16.8,29.68,South,173,0.0,0.0,84,0.00,,,0.00,VWS V14.01,2014-02-06 07:36:00,
2014-02-06 02:41:00,20.7,16.6,29.68,South,173,0.0,0.0,84,0.00,,,0.00,VWS V14.01,2014-02-06 07:41:00,
2014-02-06 02:46:00,20.3,16.0,29.68,South,173,0.0,0.0,83,0.00,,,0.00,VWS V14.01,2014-02-06 07:46:00,
2014-02-06 02:51:00,20.1,15.8,29.68,South,173,0.0,0.0,83,0.00,,,0.00,VWS V14.01,2014-02-06 07:51:00,
2014-02-06 02:56:00,19.4,15.1,29.68,South,173,0.0,0.0,83,0.00,,,0.00,VWS V14.01,2014-02-06 07:56:00,
2014-02-06 03:01:00,19.2,14.9,29.71,South,173,0.0,0.0,83,0.00,,,0.00,VWS V14.01,2014-02-06 08:01:00,
2014-02-06 03:06:00,18.7,14.4,29.71,South,172,0.0,0.0,83,0.00,,,0.00,VWS V14.01,2014-02-06 08:06:00,
2014-02-06 03:11:00,18.5,14.2,29.71,South,173,0.0,0.0,83,0.00,,,0.00,VWS V14.01,2014-02-06 08:11:00,
2014-02-06 03:16:00,18.3,14.0,29.71,South,173,0.0,0.0,83,0.00,,,0.00,VWS V14.01,2014-02-06 08:16:00,
2014-02-06 03:21:00,18.1,13.9,29.71,South,173,0.0,0.0,83,0.00,,,0.00,VWS V14.01,2014-02-06 08:21:00,
2014-02-06 03:26:00,18.1,13.9,29.71,South,173,0.0,0.0,83,0.00,,,0.00,VWS V14.01,2014-02-06 08:26:00,
2014-02-06 03:31:00,18.0,13.7,29.71,South,173,0.0,0.0,83,0.00,,,0.00,VWS V14.01,2014-02-06 08:31:00,
2014-02-06 03:36:00,17.8,13.5,29.71,South,173,0.0,0.0,83,0.00,,,0.00,VWS V14.01,2014-02-06 08:36:00,
2014-02-06 03:41:00,17.6,13.3,29.71,South,173,0.0,0.0,83,0.00,,,0.00,VWS V14.01,2014-02-06 08:41:00,
2014-02-06 03:46:00,17.4,13.1,29.74,South,173,0.0,0.0,83,0.00,,,0.00,VWS V14.01,2014-02-06 08:46:00,
2014-02-06 03:51:00,17.1,12.8,29.74,South,173,0.0,0.0,83,0.00,,,0.00,VWS V14.01,2014-02-06 08:51:00,
2014-02-06 03:56:00,16.9,12.6,29.74,South,173,0.0,0.0,83,0.00,,,0.00,VWS V14.01,2014-02-06 08:56:00,
2014-02-06 04:01:00,16.7,12.2,29.74,South,173,0.0,0.0,82,0.00,,,0.00,VWS V14.01,2014-02-06 09:01:00,
2014-02-06 04:06:00,16.2,11.6,29.74,South,173,0.0,0.0,82,0.00,,,0.00,VWS V14.01,2014-02-06 09:06:00,
2014-02-06 04:11:00,16.2,11.9,29.74,South,173,0.0,0.0,83,0.00,,,0.00,VWS V14.01,2014-02-06 09:11:00,
2014-02-06 04:16:00,16.2,11.9,29.74,South,173,0.0,0.0,83,0.00,,,0.00,VWS V14.01,2014-02-06 09:16:00,
2014-02-06 04:21:00,16.0,11.7,29.74,South,173,0.0,0.0,83,0.00,,,0.00,VWS V14.01,2014-02-06 09:21:00,
2014-02-06 04:26:00,15.8,11.6,29.74,South,173,0.0,0.0,83,0.00,,,0.00,VWS V14.01,2014-02-06 09:26:00,
2014-02-06 04:31:00,15.4,11.2,29.77,South,173,0.0,0.0,83,0.00,,,0.00,VWS V14.01,2014-02-06 09:31:00,
2014-02-06 04:36:00,15.3,11.0,29.77,South,173,0.0,0.0,83,0.00,,,0.00,VWS V14.01,2014-02-06 09:36:00,
2014-02-06 04:41:00,14.9,10.4,29.77,South,173,0.0,0.0,82,0.00,,,0.00,VWS V14.01,2014-02-06 09:41:00,
2014-02-06 04:46:00,14.5,10.1,29.77,South,173,0.0,0.0,82,0.00,,,0.00,VWS V14.01,2014-02-06 09:46:00,
2014-02-06 04:51:00,14.2,9.7,29.77,South,173,0.0,0.0,82,0.00,,,0.00,VWS V14.01,2014-02-06 09:51:00,
2014-02-06 04:56:00,14.0,9.8,29.77,South,173,0.0,0.0,83,0.00,,,0.00,VWS V14.01,2014-02-06 09:56:00,
2014-02-06 05:01:00,13.8,9.6,29.77,South,173,0.0,0.0,83,0.00,,,0.00,VWS V14.01,2014-02-06 10:01:00,
2014-02-06 05:06:00,13.6,9.4,29.77,South,173,0.0,0.0,83,0.00,,,0.00,VWS V14.01,2014-02-06 10:06:00,
2014-02-06 05:11:00,13.5,9.3,29.77,South,173,0.0,0.0,83,0.00,,,0.00,VWS V14.01,2014-02-06 10:11:00,
2014-02-06 05:16:00,13.5,9.3,29.77,South,173,0.0,0.0,83,0.00,,,0.00,VWS V14.01,2014-02-06 10:16:00,
2014-02-06 05:21:00,13.3,9.1,29.77,South,173,0.0,0.0,83,0.00,,,0.00,VWS V14.01,2014-02-06 10:21:00,
2014-02-06 05:26:00,13.5,9.3,29.77,South,173,0.0,0.0,83,0.00,,,0.00,VWS V14.01,2014-02-06 10:26:00,
2014-02-06 05:31:00,13.5,9.3,29.77,South,173,0.0,0.0,83,0.00,,,0.00,VWS V14.01,2014-02-06 10:31:00,
2014-02-06 05:36:00,13.6,9.4,29.77,South,173,0.0,0.0,83,0.00,,,0.00,VWS V14.01,2014-02-06 10:36:00,
2014-02-06 05:41:00,13.8,9.6,29.77,South,173,0.0,0.0,83,0.00,,,0.00,VWS V14.01,2014-02-06 10:41:00,
2014-02-06 05:46:00,14.2,10.0,29.80,South,173,0.0,0.0,83,0.00,,,0.00,VWS V14.01,2014-02-06 10:46:00,
2014-02-06 05:51:00,14.5,10.3,29.80,South,173,0.0,0.0,83,0.00,,,0.00,VWS V14.01,2014-02-06 10:51:00,
2014-02-06 05:56:00,14.7,10.5,29.80,South,173,0.0,0.0,83,0.00,,,0.00,VWS V14.01,2014-02-06 10:56:00,
2014-02-06 06:01:00,14.5,10.3,29.80,South,173,0.0,0.0,83,0.00,,,0.00,VWS V14.01,2014-02-06 11:01:00,
2014-02-06 06:06:00,14.2,9.7,29.80,South,173,0.0,0.0,82,0.00,,,0.00,VWS V14.01,2014-02-06 11:06:00,
2014-02-06 06:11:00,13.6,9.4,29.80,South,173,0.0,0.0,83,0.00,,,0.00,VWS V14.01,2014-02-06 11:11:00,
2014-02-06 06:16:00,13.5,9.3,29.80,South,173,0.0,0.0,83,0.00,,,0.00,VWS V14.01,2014-02-06 11:16:00,
2014-02-06 06:21:00,13.5,9.3,29.83,South,173,0.0,0.0,83,0.00,,,0.00,VWS V14.01,2014-02-06 11:21:00,
2014-02-06 06:26:00,13.6,9.4,29.83,South,173,0.0,0.0,83,0.00,,,0.00,VWS V14.01,2014-02-06 11:26:00,
2014-02-06 06:31:00,14.0,9.8,29.83,South,173,0.0,0.0,83,0.00,,,0.00,VWS V14.01,2014-02-06 11:31:00,
2014-02-06 06:36:00,14.5,10.3,29.83,South,173,0.0,0.0,83,0.00,,,0.00,VWS V14.01,2014-02-06 11:36:00,
2014-02-06 06:41:00,15.3,11.3,29.83,South,173,0.0,0.0,84,0.00,,,0.00,VWS V14.01,2014-02-06 11:41:00,
2014-02-06 06:46:00,15.8,11.8,29.83,South,173,0.0,0.0,84,0.00,,,0.00,VWS V14.01,2014-02-06 11:46:00,
2014-02-06 06:51:00,15.8,11.6,29.85,South,173,0.0,0.0,83,0.00,,,0.00,VWS V14.01,2014-02-06 11:51:00,
2014-02-06 06:56:00,15.8,11.6,29.85,South,173,0.0,0.0,83,0.00,,,0.00,VWS V14.01,2014-02-06 11:56:00,
2014-02-06 07:01:00,15.8,11.6,29.85,South,173,0.0,0.0,83,0.00,,,0.00,VWS V14.01,2014-02-06 12:01:00,
2014-02-06 07:06:00,15.6,11.4,29.85,South,173,0.0,0.0,83,0.00,,,0.00,VWS V14.01,2014-02-06 12:06:00,
2014-02-06 07:11:00,15.4,11.2,29.85,South,173,0.0,0.0,83,0.00,,,0.00,VWS V14.01,2014-02-06 12:11:00,
2014-02-06 07:16:00,15.3,11.0,29.85,South,173,0.0,0.0,83,0.00,,,0.00,VWS V14.01,2014-02-06 12:16:00,
2014-02-06 07:21:00,15.3,11.0,29.85,South,173,0.0,0.0,83,0.00,,,0.00,VWS V14.01,2014-02-06 12:21:00,
2014-02-06 07:26:00,15.3,11.0,29.85,South,173,0.0,0.0,83,0.00,,,0.00,VWS V14.01,2014-02-06 12:26:00,
2014-02-06 07:31:00,15.4,11.2,29.85,South,173,0.0,0.0,83,0.00,,,0.00,VWS V14.01,2014-02-06 12:31:00,
2014-02-06 07:36:00,15.8,11.6,29.85,South,173,0.0,0.0,83,0.00,,,0.00,VWS V14.01,2014-02-06 12:36:00,
2014-02-06 07:41:00,16.7,12.4,29.85,South,173,0.0,0.0,83,0.00,,,0.00,VWS V14.01,2014-02-06 12:41:00,
2014-02-06 07:46:00,17.8,13.8,29.88,South,173,0.0,0.0,84,0.00,,,0.00,VWS V14.01,2014-02-06 12:46:00,
2014-02-06 07:51:00,18.3,14.0,29.88,South,173,0.0,0.0,83,0.00,,,0.00,VWS V14.01,2014-02-06 12:51:00,
2014-02-06 07:56:00,18.5,14.2,29.88,South,173,0.0,0.0,83,0.00,,,0.00,VWS V14.01,2014-02-06 12:56:00,
2014-02-06 08:01:00,18.9,14.6,29.88,South,173,0.0,0.0,83,0.00,,,0.00,VWS V14.01,2014-02-06 13:01:00,
2014-02-06 08:06:00,19.2,14.9,29.88,South,173,0.0,0.0,83,0.00,,,0.00,VWS V14.01,2014-02-06 13:06:00,
2014-02-06 08:11:00,19.8,15.4,29.88,South,173,0.0,0.0,83,0.00,,,0.00,VWS V14.01,2014-02-06 13:11:00,
2014-02-06 08:16:00,20.3,16.0,29.88,South,173,0.0,0.0,83,0.00,,,0.00,VWS V14.01,2014-02-06 13:16:00,
2014-02-06 08:21:00,20.7,16.6,29.88,South,173,0.0,0.0,84,0.00,,,0.00,VWS V14.01,2014-02-06 13:21:00,
2014-02-06 08:26:00,21.2,17.1,29.88,South,173,0.0,0.0,84,0.00,,,0.00,VWS V14.01,2014-02-06 13:26:00,
2014-02-06 08:31:00,21.7,17.7,29.88,South,173,0.0,0.0,84,0.00,,,0.00,VWS V14.01,2014-02-06 13:31:00,
2014-02-06 08:36:00,22.3,18.2,29.88,South,173,0.0,0.0,84,0.00,,,0.00,VWS V14.01,2014-02-06 13:36:00,
2014-02-06 08:41:00,22.8,18.4,29.88,South,173,0.0,0.0,83,0.00,,,0.00,VWS V14.01,2014-02-06 13:41:00,
2014-02-06 08:46:00,23.4,19.0,29.88,South,173,0.0,0.0,83,0.00,,,0.00,VWS V14.01,2014-02-06 13:46:00,
2014-02-06 08:51:00,23.5,18.9,29.88,South,173,0.0,0.0,82,0.00,,,0.00,VWS V14.01,2014-02-06 13:51:00,
2014-02-06 08:56:00,23.7,18.8,29.88,South,173,0.0,0.0,81,0.00,,,0.00,VWS V14.01,2014-02-06 13:56:00,
2014-02-06 09:01:00,23.2,17.6,29.88,South,173,0.0,0.0,79,0.00,,,0.00,VWS V14.01,2014-02-06 14:01:00,
2014-02-06 09:06:00,22.3,16.5,29.88,South,173,0.0,0.0,78,0.00,,,0.00,VWS V14.01,2014-02-06 14:06:00,
2014-02-06 09:11:00,21.6,15.2,29.88,South,173,0.0,0.0,76,0.00,,,0.00,VWS V14.01,2014-02-06 14:11:00,
2014-02-06 09:15:00,21.0,14.1,29.88,South,173,0.0,0.0,74,0.00,,,0.00,VWS V14.01,2014-02-06 14:15:00,
2014-02-06 09:20:00,20.7,13.4,29.88,South,173,0.0,0.0,73,0.00,,,0.00,VWS V14.01,2014-02-06 14:20:00,
2014-02-06 09:25:00,20.7,12.8,29.88,South,173,0.0,0.0,71,0.00,,,0.00,VWS V14.01,2014-02-06 14:25:00,
2014-02-06 09:30:00,20.8,12.6,29.91,South,173,0.0,0.0,70,0.00,,,0.00,VWS V14.01,2014-02-06 14:30:00,
2014-02-06 09:35:00,20.8,12.3,29.91,South,173,0.0,0.0,69,0.00,,,0.00,VWS V14.01,2014-02-06 14:35:00,
2014-02-06 09:40:00,21.0,12.5,29.91,South,173,0.0,0.0,69,0.00,,,0.00,VWS V14.01,2014-02-06 14:40:00,
2014-02-06 09:45:00,21.0,11.8,29.91,South,173,0.0,0.0,67,0.00,,,0.00,VWS V14.01,2014-02-06 14:45:00,
2014-02-06 09:50:00,21.0,11.1,29.91,South,175,0.0,0.0,65,0.00,,,0.00,VWS V14.01,2014-02-06 14:50:00,
2014-02-06 09:55:00,21.0,10.4,29.91,South,175,0.0,0.0,63,0.00,,,0.00,VWS V14.01,2014-02-06 14:55:00,
2014-02-06 10:00:00,21.2,10.2,29.91,South,175,0.0,0.0,62,0.00,,,0.00,VWS V14.01,2014-02-06 15:00:00,
2014-02-06 10:05:00,21.4,10.0,29.91,South,175,0.0,0.0,61,0.00,,,0.00,VWS V14.01,2014-02-06 15:05:00,
2014-02-06 10:10:00,21.4,9.3,29.91,South,175,0.0,0.0,59,0.00,,,0.00,VWS V14.01,2014-02-06 15:10:00,
2014-02-06 10:15:00,21.4,8.9,29.91,South,175,0.0,0.0,58,0.00,,,0.00,VWS V14.01,2014-02-06 15:15:00,
2014-02-06 10:20:00,21.9,8.6,29.91,South,175,0.0,3.1,56,0.00,,,0.00,VWS V14.01,2014-02-06 15:20:00,
2014-02-06 10:25:00,21.9,8.2,29.91,South,175,2.7,2.7,55,0.00,,,0.00,VWS V14.01,2014-02-06 15:25:00,
2014-02-06 10:30:00,22.3,8.2,29.91,South,175,3.1,3.1,54,0.00,,,0.00,VWS V14.01,2014-02-06 15:30:00,
2014-02-06 10:35:00,22.6,8.5,29.91,South,175,2.2,2.7,54,0.00,,,0.00,VWS V14.01,2014-02-06 15:35:00,
2014-02-06 10:40:00,22.8,7.8,29.91,South,175,0.0,0.0,52,0.00,,,0.00,VWS V14.01,2014-02-06 15:40:00,
2014-02-06 10:45:00,23.0,7.6,29.91,South,176,0.0,2.2,51,0.00,,,0.00,VWS V14.01,2014-02-06 15:45:00,
2014-02-06 10:50:00,22.8,6.5,29.91,South,176,0.0,0.0,49,0.00,,,0.00,VWS V14.01,2014-02-06 15:50:00,
2014-02-06 10:55:00,22.8,6.1,29.91,South,175,0.0,0.0,48,0.00,,,0.00,VWS V14.01,2014-02-06 15:55:00,
2014-02-06 11:00:00,22.8,6.5,29.91,South,175,0.0,0.0,49,0.00,,,0.00,VWS V14.01,2014-02-06 16:00:00,
2014-02-06 11:05:00,23.0,7.1,29.91,South,175,0.0,0.0,50,0.00,,,0.00,VWS V14.01,2014-02-06 16:05:00,
2014-02-06 11:10:00,24.1,8.6,29.91,South,175,0.0,0.0,51,0.00,,,0.00,VWS V14.01,2014-02-06 16:10:00,
2014-02-06 11:15:00,25.2,8.7,29.91,South,187,0.0,0.0,49,0.00,,,0.00,VWS V14.01,2014-02-06 16:15:00,
2014-02-06 11:20:00,25.2,7.3,29.91,West,281,2.2,3.6,46,0.00,,,0.00,VWS V14.01,2014-02-06 16:20:00,
2014-02-06 11:25:00,25.2,6.8,29.91,WNW,286,0.0,0.0,45,0.00,,,0.00,VWS V14.01,2014-02-06 16:25:00,
2014-02-06 11:30:00,25.7,7.3,29.88,West,269,0.0,0.0,45,0.00,,,0.00,VWS V14.01,2014-02-06 16:30:00,
2014-02-06 11:35:00,26.4,8.0,29.88,NE,52,0.0,0.0,45,0.00,,,0.00,VWS V14.01,2014-02-06 16:35:00,
2014-02-06 11:40:00,27.0,8.5,29.88,NNW,340,0.0,0.0,45,0.00,,,0.00,VWS V14.01,2014-02-06 16:40:00,
2014-02-06 11:45:00,27.1,8.1,29.88,ESE,106,0.0,0.0,44,0.00,,,0.00,VWS V14.01,2014-02-06 16:45:00,
2014-02-06 11:50:00,26.8,7.3,29.88,WSW,257,0.0,2.7,43,0.00,,,0.00,VWS V14.01,2014-02-06 16:50:00,
2014-02-06 11:55:00,26.1,6.6,29.88,West,265,2.2,2.7,43,0.00,,,0.00,VWS V14.01,2014-02-06 16:55:00,
2014-02-06 12:00:00,25.9,6.5,29.88,SW,226,2.2,2.7,43,0.00,,,0.00,VWS V14.01,2014-02-06 17:00:00,
2014-02-06 12:05:00,25.7,6.8,29.88,NE,48,0.0,0.0,44,0.00,,,0.00,VWS V14.01,2014-02-06 17:05:00,
2014-02-06 12:10:00,26.1,7.2,29.88,NE,44,0.0,0.0,44,0.00,,,0.00,VWS V14.01,2014-02-06 17:10:00,
2014-02-06 12:15:00,26.1,7.2,29.88,ENE,77,0.0,0.0,44,0.00,,,0.00,VWS V14.01,2014-02-06 17:15:00,
2014-02-06 12:20:00,26.4,7.5,29.88,WNW,287,0.0,0.0,44,0.00,,,0.00,VWS V14.01,2014-02-06 17:20:00,
2014-02-06 12:25:00,26.4,7.0,29.88,West,274,0.0,0.0,43,0.00,,,0.00,VWS V14.01,2014-02-06 17:25:00,
2014-02-06 12:30:00,26.2,6.8,29.88,WNW,283,0.0,0.0,43,0.00,,,0.00,VWS V14.01,2014-02-06 17:30:00,
2014-02-06 12:35:00,26.2,6.8,29.88,East,89,0.0,0.0,43,0.00,,,0.00,VWS V14.01,2014-02-06 17:35:00,
2014-02-06 12:40:00,26.2,6.8,29.88,WNW,286,0.0,0.0,43,0.00,,,0.00,VWS V14.01,2014-02-06 17:40:00,
2014-02-06 12:45:00,26.2,6.8,29.88,West,271,0.0,0.0,43,0.00,,,0.00,VWS V14.01,2014-02-06 17:45:00,
2014-02-06 12:50:00,26.8,6.8,29.88,West,275,4.0,4.0,42,0.00,,,0.00,VWS V14.01,2014-02-06 17:50:00,
2014-02-06 12:55:00,26.6,6.6,29.88,SSE,156,0.0,0.0,42,0.00,,,0.00,VWS V14.01,2014-02-06 17:55:00,
2014-02-06 13:00:00,26.6,6.6,29.88,West,261,0.0,3.6,42,0.00,,,0.00,VWS V14.01,2014-02-06 18:00:00,
2014-02-06 13:05:00,26.6,6.6,29.85,WNW,299,3.1,3.1,42,0.00,,,0.00,VWS V14.01,2014-02-06 18:05:00,
2014-02-06 13:10:00,26.8,6.2,29.85,WNW,293,2.2,2.2,41,0.00,,,0.00,VWS V14.01,2014-02-06 18:10:00,
2014-02-06 13:15:00,27.0,6.9,29.85,WNW,290,0.0,0.0,42,0.00,,,0.00,VWS V14.01,2014-02-06 18:15:00,
2014-02-06 13:20:00,27.5,7.4,29.85,North,357,0.0,0.0,42,0.00,,,0.00,VWS V14.01,2014-02-06 18:20:00,
2014-02-06 13:25:00,28.2,8.1,29.85,SW,235,2.7,2.7,42,0.00,,,0.00,VWS V14.01,2014-02-06 18:25:00,
2014-02-06 13:30:00,28.6,7.9,29.85,North,8,0.0,2.7,41,0.00,,,0.00,VWS V14.01,2014-02-06 18:30:00,
2014-02-06 13:35:00,28.6,7.9,29.85,SSW,207,0.0,0.0,41,0.00,,,0.00,VWS V14.01,2014-02-06 18:35:00,
2014-02-06 13:40:00,28.4,7.7,29.85,SSE,151,2.7,3.1,41,0.00,,,0.00,VWS V14.01,2014-02-06 18:40:00,
2014-02-06 13:45:00,27.9,7.2,29.85,WSW,247,0.0,0.0,41,0.00,,,0.00,VWS V14.01,2014-02-06 18:45:00,
2014-02-06 13:50:00,28.0,7.4,29.85,WSW,240,3.1,3.1,41,0.00,,,0.00,VWS V14.01,2014-02-06 18:50:00,
2014-02-06 13:55:00,27.9,7.2,29.85,NW,321,0.0,0.0,41,0.00,,,0.00,VWS V14.01,2014-02-06 18:55:00,
2014-02-06 14:00:00,28.0,7.4,29.85,SSE,156,0.0,0.0,41,0.00,,,0.00,VWS V14.01,2014-02-06 19:00:00,
2014-02-06 14:05:00,28.4,7.7,29.85,WNW,299,0.0,0.0,41,0.00,,,0.00,VWS V14.01,2014-02-06 19:05:00,
2014-02-06 14:10:00,28.8,6.9,29.85,WSW,242,3.6,3.6,39,0.00,,,0.00,VWS V14.01,2014-02-06 19:10:00,
2014-02-06 14:15:00,28.8,6.9,29.85,WSW,254,2.2,2.2,39,0.00,,,0.00,VWS V14.01,2014-02-06 19:15:00,
2014-02-06 14:20:00,28.8,6.4,29.85,West,269,0.0,0.0,38,0.00,,,0.00,VWS V14.01,2014-02-06 19:20:00,
2014-02-06 14:25:00,28.9,6.5,29.85,West,266,5.8,5.8,38,0.00,,,0.00,VWS V14.01,2014-02-06 19:25:00,
2014-02-06 14:30:00,28.6,5.6,29.85,WNW,297,3.1,3.1,37,0.00,,,0.00,VWS V14.01,2014-02-06 19:30:00,
2014-02-06 14:35:00,28.2,5.9,29.85,SSW,209,0.0,0.0,38,0.00,,,0.00,VWS V14.01,2014-02-06 19:35:00,
2014-02-06 14:40:00,28.6,6.2,29.85,WSW,241,0.0,0.0,38,0.00,,,0.00,VWS V14.01,2014-02-06 19:40:00,
2014-02-06 14:45:00,28.6,5.6,29.85,WNW,288,0.0,0.0,37,0.00,,,0.00,VWS V14.01,2014-02-06 19:45:00,
2014-02-06 14:50:00,28.8,6.4,29.85,SW,232,0.0,0.0,38,0.00,,,0.00,VWS V14.01,2014-02-06 19:50:00,
2014-02-06 14:55:00,28.4,6.1,29.85,West,277,0.0,0.0,38,0.00,,,0.00,VWS V14.01,2014-02-06 19:55:00,
2014-02-06 15:00:00,28.0,5.7,29.85,West,277,0.0,0.0,38,0.00,,,0.00,VWS V14.01,2014-02-06 20:00:00,
2014-02-06 15:05:00,28.2,5.3,29.85,WNW,285,0.0,0.0,37,0.00,,,0.00,VWS V14.01,2014-02-06 20:05:00,
2014-02-06 15:10:00,28.0,5.1,29.85,SW,229,0.0,0.0,37,0.00,,,0.00,VWS V14.01,2014-02-06 20:10:00,
2014-02-06 15:15:00,27.9,5.0,29.85,West,281,0.0,0.0,37,0.00,,,0.00,VWS V14.01,2014-02-06 20:15:00,
2014-02-06 15:20:00,27.9,5.0,29.85,WSW,252,3.1,3.1,37,0.00,,,0.00,VWS V14.01,2014-02-06 20:20:00,
2014-02-06 15:25:00,27.7,4.8,29.85,WSW,256,0.0,0.0,37,0.00,,,0.00,VWS V14.01,2014-02-06 20:25:00,
2014-02-06 15:30:00,27.9,5.6,29.85,SW,236,0.0,0.0,38,0.00,,,0.00,VWS V14.01,2014-02-06 20:30:00,
2014-02-06 15:35:00,27.9,5.0,29.85,SW,235,2.7,2.7,37,0.00,,,0.00,VWS V14.01,2014-02-06 20:35:00,
2014-02-06 15:40:00,27.7,4.8,29.85,WSW,241,0.0,0.0,37,0.00,,,0.00,VWS V14.01,2014-02-06 20:40:00,
2014-02-06 15:45:00,27.9,5.6,29.85,West,281,2.2,2.2,38,0.00,,,0.00,VWS V14.01,2014-02-06 20:45:00,
2014-02-06 15:50:00,27.7,4.8,29.85,West,276,0.0,0.0,37,0.00,,,0.00,VWS V14.01,2014-02-06 20:50:00,
2014-02-06 15:55:00,27.5,4.7,29.85,West,268,0.0,0.0,37,0.00,,,0.00,VWS V14.01,2014-02-06 20:55:00,
2014-02-06 16:00:00,27.5,5.2,29.85,WSW,249,0.0,0.0,38,0.00,,,0.00,VWS V14.01,2014-02-06 21:00:00,
2014-02-06 16:05:00,27.5,5.2,29.85,WSW,249,0.0,0.0,38,0.00,,,0.00,VWS V14.01,2014-02-06 21:05:00,
2014-02-06 16:10:00,27.5,5.2,29.85,WNW,286,0.0,0.0,38,0.00,,,0.00,VWS V14.01,2014-02-06 21:10:00,
2014-02-06 16:15:00,27.7,5.4,29.85,WNW,286,0.0,0.0,38,0.00,,,0.00,VWS V14.01,2014-02-06 21:15:00,
2014-02-06 16:20:00,27.7,5.4,29.85,SW,233,0.0,0.0,38,0.00,,,0.00,VWS V14.01,2014-02-06 21:20:00,
2014-02-06 16:25:00,27.5,5.2,29.85,WSW,250,2.7,2.7,38,0.00,,,0.00,VWS V14.01,2014-02-06 21:25:00,
2014-02-06 16:30:00,27.3,5.1,29.85,SW,236,0.0,0.0,38,0.00,,,0.00,VWS V14.01,2014-02-06 21:30:00,
2014-02-06 16:35:00,27.0,4.2,29.85,WSW,246,0.0,0.0,37,0.00,,,0.00,VWS V14.01,2014-02-06 21:35:00,
2014-02-06 16:40:00,26.8,4.6,29.85,WSW,246,0.0,0.0,38,0.00,,,0.00,VWS V14.01,2014-02-06 21:40:00,
2014-02-06 16:45:00,26.6,4.4,29.85,WSW,246,0.0,0.0,38,0.00,,,0.00,VWS V14.01,2014-02-06 21:45:00,
2014-02-06 16:50:00,26.4,4.3,29.85,WSW,246,0.0,0.0,38,0.00,,,0.00,VWS V14.01,2014-02-06 21:50:00,
2014-02-06 16:55:00,26.1,3.9,29.85,WSW,246,0.0,0.0,38,0.00,,,0.00,VWS V14.01,2014-02-06 21:55:00,
2014-02-06 17:00:00,25.7,3.6,29.85,WSW,246,0.0,0.0,38,0.00,,,0.00,VWS V14.01,2014-02-06 22:00:00,
2014-02-06 17:05:00,25.3,3.9,29.85,WSW,246,0.0,0.0,39,0.00,,,0.00,VWS V14.01,2014-02-06 22:05:00,
2014-02-06 17:10:00,25.0,3.5,29.85,WSW,246,0.0,0.0,39,0.00,,,0.00,VWS V14.01,2014-02-06 22:10:00,
2014-02-06 17:15:00,24.4,3.0,29.85,WSW,246,0.0,0.0,39,0.00,,,0.00,VWS V14.01,2014-02-06 22:15:00,
2014-02-06 17:20:00,24.3,3.4,29.85,WSW,246,0.0,0.0,40,0.00,,,0.00,VWS V14.01,2014-02-06 22:20:00,
2014-02-06 17:25:00,23.5,2.8,29.85,WSW,246,0.0,0.0,40,0.00,,,0.00,VWS V14.01,2014-02-06 22:25:00,
2014-02-06 17:30:00,23.2,2.5,29.85,WSW,246,0.0,0.0,40,0.00,,,0.00,VWS V14.01,2014-02-06 22:30:00,
2014-02-06 17:35:00,22.8,2.7,29.85,WSW,246,0.0,0.0,41,0.00,,,0.00,VWS V14.01,2014-02-06 22:35:00,
2014-02-06 17:40:00,22.6,2.5,29.85,WSW,246,0.0,0.0,41,0.00,,,0.00,VWS V14.01,2014-02-06 22:40:00,
2014-02-06 17:45:00,22.3,2.2,29.85,WSW,246,0.0,0.0,41,0.00,,,0.00,VWS V14.01,2014-02-06 22:45:00,
2014-02-06 17:50:00,21.9,2.4,29.85,WSW,246,0.0,0.0,42,0.00,,,0.00,VWS V14.01,2014-02-06 22:50:00,
2014-02-06 17:55:00,21.7,2.2,29.85,WSW,246,0.0,0.0,42,0.00,,,0.00,VWS V14.01,2014-02-06 22:55:00,
2014-02-06 18:00:00,21.2,2.2,29.85,WSW,246,0.0,0.0,43,0.00,,,0.00,VWS V14.01,2014-02-06 23:00:00,
2014-02-06 18:05:00,20.8,1.9,29.85,WSW,246,0.0,0.0,43,0.00,,,0.00,VWS V14.01,2014-02-06 23:05:00,
2014-02-06 18:10:00,20.5,1.5,29.85,WSW,246,0.0,0.0,43,0.00,,,0.00,VWS V14.01,2014-02-06 23:10:00,
2014-02-06 18:15:00,20.1,1.2,29.85,WSW,246,0.0,0.0,43,0.00,,,0.00,VWS V14.01,2014-02-06 23:15:00,
2014-02-06 18:20:00,19.9,1.1,29.85,WSW,246,0.0,0.0,43,0.00,,,0.00,VWS V14.01,2014-02-06 23:20:00,
2014-02-06 18:25:00,19.4,1.1,29.85,WSW,246,0.0,0.0,44,0.00,,,0.00,VWS V14.01,2014-02-06 23:25:00,
2014-02-06 18:30:00,19.0,0.7,29.85,WSW,246,0.0,0.0,44,0.00,,,0.00,VWS V14.01,2014-02-06 23:30:00,
2014-02-06 18:35:00,18.9,0.6,29.85,WSW,246,0.0,0.0,44,0.00,,,0.00,VWS V14.01,2014-02-06 23:35:00,
2014-02-06 18:40:00,18.7,0.4,29.85,WSW,246,0.0,0.0,44,0.00,,,0.00,VWS V14.01,2014-02-06 23:40:00,
2014-02-06 18:45:00,18.3,0.6,29.85,WSW,246,0.0,0.0,45,0.00,,,0.00,VWS V14.01,2014-02-06 23:45:00,
2014-02-06 18:50:00,18.1,0.4,29.85,WSW,246,0.0,0.0,45,0.00,,,0.00,VWS V14.01,2014-02-06 23:50:00,
2014-02-06 18:55:00,17.8,0.1,29.85,WSW,246,0.0,0.0,45,0.00,,,0.00,VWS V14.01,2014-02-06 23:55:00,
2014-02-06 19:00:00,17.4,0.2,29.85,WSW,246,0.0,0.0,46,0.00,,,0.00,VWS V14.01,2014-02-07 00:00:00,
2014-02-06 19:05:00,17.1,-0.1,29.85,WSW,246,0.0,0.0,46,0.00,,,0.00,VWS V14.01,2014-02-07 00:05:00,
2014-02-06 19:09:00,16.9,-0.3,29.85,WSW,246,0.0,0.0,46,0.00,,,0.00,VWS V14.01,2014-02-07 00:09:00,
2014-02-06 19:14:00,16.5,-0.2,29.85,WSW,246,0.0,0.0,47,0.00,,,0.00,VWS V14.01,2014-02-07 00:14:00,
2014-02-06 19:19:00,16.2,-0.5,29.85,WSW,246,0.0,0.0,47,0.00,,,0.00,VWS V14.01,2014-02-07 00:19:00,
2014-02-06 19:24:00,16.2,-0.5,29.85,WSW,246,0.0,0.0,47,0.00,,,0.00,VWS V14.01,2014-02-07 00:24:00,
2014-02-06 19:29:00,15.6,-0.6,29.85,WSW,246,0.0,0.0,48,0.00,,,0.00,VWS V14.01,2014-02-07 00:29:00,
2014-02-06 19:34:00,15.4,-0.7,29.85,WSW,246,0.0,0.0,48,0.00,,,0.00,VWS V14.01,2014-02-07 00:34:00,
2014-02-06 19:39:00,15.4,-0.3,29.85,WSW,246,0.0,0.0,49,0.00,,,0.00,VWS V14.01,2014-02-07 00:39:00,
2014-02-06 19:44:00,15.3,-0.5,29.85,WSW,246,0.0,0.0,49,0.00,,,0.00,VWS V14.01,2014-02-07 00:44:00,
2014-02-06 19:49:00,14.9,-0.4,29.85,WSW,246,0.0,0.0,50,0.00,,,0.00,VWS V14.01,2014-02-07 00:49:00,
2014-02-06 19:54:00,14.7,-0.5,29.85,WSW,246,0.0,0.0,50,0.00,,,0.00,VWS V14.01,2014-02-07 00:54:00,
2014-02-06 19:59:00,14.5,-0.7,29.85,WSW,246,0.0,0.0,50,0.00,,,0.00,VWS V14.01,2014-02-07 00:59:00,
2014-02-06 20:04:00,14.4,-0.9,29.85,WSW,246,0.0,0.0,50,0.00,,,0.00,VWS V14.01,2014-02-07 01:04:00,
2014-02-06 20:09:00,14.4,-0.4,29.85,WSW,246,0.0,0.0,51,0.00,,,0.00,VWS V14.01,2014-02-07 01:09:00,
2014-02-06 20:14:00,14.2,-0.6,29.85,WSW,246,0.0,0.0,51,0.00,,,0.00,VWS V14.01,2014-02-07 01:14:00,
2014-02-06 20:19:00,13.8,-0.9,29.85,WSW,246,0.0,0.0,51,0.00,,,0.00,VWS V14.01,2014-02-07 01:19:00,
2014-02-06 20:24:00,13.6,-1.1,29.85,WSW,246,0.0,0.0,51,0.00,,,0.00,VWS V14.01,2014-02-07 01:24:00,
2014-02-06 20:29:00,13.6,-1.1,29.85,WSW,246,0.0,0.0,51,0.00,,,0.00,VWS V14.01,2014-02-07 01:29:00,
2014-02-06 20:34:00,13.6,-1.1,29.85,WSW,246,0.0,0.0,51,0.00,,,0.00,VWS V14.01,2014-02-07 01:34:00,
2014-02-06 20:39:00,13.5,-1.3,29.85,WSW,246,0.0,0.0,51,0.00,,,0.00,VWS V14.01,2014-02-07 01:39:00,
2014-02-06 20:44:00,13.5,-1.3,29.85,WSW,246,0.0,0.0,51,0.00,,,0.00,VWS V14.01,2014-02-07 01:44:00,
2014-02-06 20:49:00,13.3,-1.5,29.85,WSW,247,0.0,0.0,51,0.00,,,0.00,VWS V14.01,2014-02-07 01:49:00,
2014-02-06 20:54:00,13.3,-1.5,29.85,WSW,246,0.0,0.0,51,0.00,,,0.00,VWS V14.01,2014-02-07 01:54:00,
2014-02-06 20:59:00,13.1,-1.6,29.85,WSW,246,0.0,0.0,51,0.00,,,0.00,VWS V14.01,2014-02-07 01:59:00,
2014-02-06 21:04:00,12.9,-1.8,29.85,WSW,246,0.0,0.0,51,0.00,,,0.00,VWS V14.01,2014-02-07 02:04:00,
2014-02-06 21:09:00,12.9,-1.8,29.85,WSW,246,0.0,0.0,51,0.00,,,0.00,VWS V14.01,2014-02-07 02:09:00,
2014-02-06 21:14:00,12.7,-2.0,29.85,WSW,246,0.0,0.0,51,0.00,,,0.00,VWS V14.01,2014-02-07 02:14:00,
2014-02-06 21:19:00,12.6,-2.1,29.85,WSW,246,0.0,0.0,51,0.00,,,0.00,VWS V14.01,2014-02-07 02:19:00,
2014-02-06 21:24:00,12.6,-2.1,29.85,WSW,246,0.0,0.0,51,0.00,,,0.00,VWS V14.01,2014-02-07 02:24:00,
2014-02-06 21:29:00,12.4,-2.3,29.85,WSW,246,0.0,0.0,51,0.00,,,0.00,VWS V14.01,2014-02-07 02:29:00,
2014-02-06 21:34:00,12.4,-2.3,29.85,WSW,246,0.0,0.0,51,0.00,,,0.00,VWS V14.01,2014-02-07 02:34:00,
2014-02-06 21:39:00,12.2,-2.5,29.85,WSW,246,0.0,0.0,51,0.00,,,0.00,VWS V14.01,2014-02-07 02:39:00,
2014-02-06 21:44:00,12.0,-2.6,29.85,WSW,246,0.0,0.0,51,0.00,,,0.00,VWS V14.01,2014-02-07 02:44:00,
2014-02-06 21:49:00,12.0,-2.6,29.85,WSW,246,0.0,0.0,51,0.00,,,0.00,VWS V14.01,2014-02-07 02:49:00,
2014-02-06 21:54:00,11.7,-3.0,29.85,WSW,246,0.0,0.0,51,0.00,,,0.00,VWS V14.01,2014-02-07 02:54:00,
2014-02-06 21:59:00,11.5,-3.1,29.88,WSW,246,0.0,0.0,51,0.00,,,0.00,VWS V14.01,2014-02-07 02:59:00,
2014-02-06 22:04:00,11.3,-3.3,29.88,WSW,246,0.0,0.0,51,0.00,,,0.00,VWS V14.01,2014-02-07 03:04:00,
2014-02-06 22:09:00,11.3,-3.3,29.88,WSW,246,0.0,0.0,51,0.00,,,0.00,VWS V14.01,2014-02-07 03:09:00,
2014-02-06 22:14:00,11.1,-3.5,29.88,WSW,246,0.0,0.0,51,0.00,,,0.00,VWS V14.01,2014-02-07 03:14:00,
2014-02-06 22:19:00,10.9,-3.6,29.88,WSW,246,0.0,0.0,51,0.00,,,0.00,VWS V14.01,2014-02-07 03:19:00,
2014-02-06 22:24:00,10.9,-3.6,29.88,WSW,246,0.0,0.0,51,0.00,,,0.00,VWS V14.01,2014-02-07 03:24:00,
2014-02-06 22:29:00,10.9,-3.6,29.88,WSW,246,0.0,0.0,51,0.00,,,0.00,VWS V14.01,2014-02-07 03:29:00,
2014-02-06 22:34:00,10.9,-3.6,29.85,WSW,246,0.0,0.0,51,0.00,,,0.00,VWS V14.01,2014-02-07 03:34:00,
2014-02-06 22:39:00,11.1,-3.5,29.85,WSW,246,0.0,0.0,51,0.00,,,0.00,VWS V14.01,2014-02-07 03:39:00,
2014-02-06 22:44:00,11.1,-3.5,29.85,WSW,246,0.0,0.0,51,0.00,,,0.00,VWS V14.01,2014-02-07 03:44:00,
2014-02-06 22:49:00,10.9,-3.6,29.85,WSW,246,0.0,0.0,51,0.00,,,0.00,VWS V14.01,2014-02-07 03:49:00,
2014-02-06 22:54:00,10.9,-3.6,29.85,WSW,246,0.0,0.0,51,0.00,,,0.00,VWS V14.01,2014-02-07 03:54:00,
2014-02-06 22:59:00,10.9,-3.6,29.85,WSW,246,0.0,0.0,51,0.00,,,0.00,VWS V14.01,2014-02-07 03:59:00,
2014-02-06 23:04:00,10.9,-3.6,29.85,WSW,246,0.0,0.0,51,0.00,,,0.00,VWS V14.01,2014-02-07 04:04:00,
2014-02-06 23:09:00,10.9,-3.6,29.85,WSW,246,0.0,0.0,51,0.00,,,0.00,VWS V14.01,2014-02-07 04:09:00,
2014-02-06 23:14:00,10.9,-3.6,29.85,WSW,246,0.0,0.0,51,0.00,,,0.00,VWS V14.01,2014-02-07 04:14:00,
2014-02-06 23:19:00,10.9,-3.6,29.85,WSW,246,0.0,0.0,51,0.00,,,0.00,VWS V14.01,2014-02-07 04:19:00,
2014-02-06 23:24:00,10.8,-3.8,29.88,WSW,246,0.0,0.0,51,0.00,,,0.00,VWS V14.01,2014-02-07 04:24:00,
2014-02-06 23:29:00,10.8,-3.8,29.88,WSW,246,0.0,0.0,51,0.00,,,0.00,VWS V14.01,2014-02-07 04:29:00,
2014-02-06 23:34:00,10.8,-3.8,29.88,WSW,246,0.0,0.0,51,0.00,,,0.00,VWS V14.01,2014-02-07 04:34:00,
2014-02-06 23:39:00,10.6,-4.0,29.88,WSW,246,0.0,0.0,51,0.00,,,0.00,VWS V14.01,2014-02-07 04:39:00,
2014-02-06 23:44:00,10.6,-4.0,29.88,WSW,246,0.0,0.0,51,0.00,,,0.00,VWS V14.01,2014-02-07 04:44:00,
2014-02-06 23:49:00,10.6,-4.0,29.88,WSW,246,0.0,0.0,51,0.00,,,0.00,VWS V14.01,2014-02-07 04:49:00,
2014-02-06 23:54:00,10.4,-4.1,29.88,WSW,246,0.0,0.0,51,0.00,,,0.00,VWS V14.01,2014-02-07 04:54:00,
2014-02-06 23:59:00,10.2,-4.3,29.85,WSW,246,0.0,0.0,51,0.00,,,0.00,VWS V14.01,2014-02-07 04:59:00,